Location: Agendoh
(31.0664°N, 8.9343°W)
Time: 03:26:17
(UTC+00:00)

Lacrosse 5 - Pass Details

Date: 26 June 2022
Orbit: 714 x 724 km, 57.0° (Epoch: 09 March)

Event Time Altitude Azimuth Distance (km) Brightness Sun altitude
Rises 00:55:19 0° 319° (NW) 3,134 5.7 -35.4°
Reaches altitude 10° 00:57:43 10° 317° (NW) 2,210 4.8 -35.4°
Enters shadow 00:58:47 16° 315° (NW) 1,809 4.2 -35.4°
